User: anonymous   Login
Location: Vancouver
(49.2500°N, 123.1330°W)
Time: 14:27:25
(UTC-07:00)
Language:

Cosmos 2333 Rocket - Orbit

View from above orbital plane
View from above orbital plane
View from above satellite
View from above satellite

Ground track
Ground track

The orbit data is extracted from the following two-line orbital elements,

1 24298U 96051B   15212.04878491 -.00000159  00000-0 -60007-4 0  9992
2 24298 070.8412 070.6390 0014066 131.2945 228.9389 14.12407042974798
Epoch (UTC): 31 July 2015 01:10:15
Eccentricity: 0.0014066
inclination: 70.8412°
perigee height: 841 km
apogee height: 861 km
right ascension of ascending node: 70.6390°
argument of perigee: 131.2945°
revolutions per day: 14.12407042
mean anomaly at epoch: 228.9389°
orbit number at epoch: 97479

The dashed part of the orbit path shows where the satellite is in the earth's shadow,  

DLR